When you browse on this site, cookies collect data to enhance your experience and personalize the content and advertising you see.
Visit our Privacy Policy to learn more. By continuing to use the site, you agree to this use of cookies and data.

Stündliche Wetter Bolshie Kabany

Heute, 26 September, Samstag

Zeit Temperatur Niederschläge Wind Luftdruck Luftfeuchtigkeit
00:00 +10°C° 0 mm 2 m/S 762 mmHg 74%
01:00 +10°C° 0 mm 2 m/S 763 mmHg 73%
02:00 +10°C° 0 mm 2 m/S 763 mmHg 71%
03:00 +10°C° 0 mm 2 m/S 763 mmHg 69%
04:00 +9°C° 0 mm 2 m/S 763 mmHg 71%
05:00 +9°C° 0 mm 2 m/S 763 mmHg 72%
06:00 +9°C° 0 mm 2 m/S 763 mmHg 74%
07:00 +10°C° 0 mm 2 m/S 763 mmHg 71%
08:00 +11°C° 0 mm 3 m/S 763 mmHg 67%
09:00 +13°C° 0 mm 3 m/S 763 mmHg 64%
10:00 +14°C° 0 mm 3 m/S 764 mmHg 61%
11:00 +16°C° 0 mm 3 m/S 764 mmHg 57%
12:00 +17°C° 0 mm 4 m/S 764 mmHg 54%
13:00 +17°C° 0 mm 3 m/S 764 mmHg 54%
14:00 +17°C° 0 mm 3 m/S 764 mmHg 54%
15:00 +17°C° 0 mm 3 m/S 764 mmHg 54%
16:00 +16°C° 0 mm 3 m/S 764 mmHg 58%
17:00 +14°C° 0 mm 3 m/S 764 mmHg 62%
18:00 +13°C° 0 mm 2 m/S 764 mmHg 67%
19:00 +13°C° 0 mm 2 m/S 764 mmHg 68%
20:00 +12°C° 0 mm 2 m/S 764 mmHg 70%
21:00 +12°C° 0 mm 2 m/S 764 mmHg 71%
22:00 +12°C° 0 mm 2 m/S 765 mmHg 70%
23:00 +10°C° 0 mm 2 m/S 765 mmHg 69%

Morgen, 27 September, Sonntag

Zeit Temperatur Niederschläge Wind Luftdruck Luftfeuchtigkeit
00:00 +10°C° 0 mm 2 m/S 765 mmHg 68%
01:00 +10°C° 0 mm 2 m/S 765 mmHg 68%
02:00 +10°C° 0 mm 2 m/S 766 mmHg 68%
03:00 +10°C° 0 mm 2 m/S 766 mmHg 68%
04:00 +9°C° 0 mm 2 m/S 766 mmHg 69%
05:00 +9°C° 0 mm 2 m/S 766 mmHg 71%
06:00 +9°C° 0 mm 2 m/S 765 mmHg 72%
07:00 +10°C° 0 mm 2 m/S 766 mmHg 68%
08:00 +13°C° 0 mm 2 m/S 766 mmHg 63%
09:00 +14°C° 0 mm 2 m/S 766 mmHg 59%
10:00 +15°C° 0 mm 2 m/S 766 mmHg 55%
11:00 +16°C° 0 mm 2 m/S 766 mmHg 52%
12:00 +17°C° 0 mm 2 m/S 766 mmHg 48%
13:00 +17°C° 0 mm 2 m/S 766 mmHg 49%
14:00 +17°C° 0 mm 2 m/S 766 mmHg 50%
15:00 +17°C° 0 mm 2 m/S 766 mmHg 50%
16:00 +16°C° 0 mm 2 m/S 766 mmHg 54%
17:00 +14°C° 0 mm 2 m/S 766 mmHg 57%
18:00 +13°C° 0 mm 2 m/S 766 mmHg 60%
19:00 +12°C° 0 mm 1 m/S 766 mmHg 61%
20:00 +12°C° 0 mm 1 m/S 766 mmHg 62%
21:00 +12°C° 0 mm 1 m/S 766 mmHg 64%
22:00 +11°C° 0 mm 1 m/S 766 mmHg 65%
23:00 +11°C° 0 mm 1 m/S 767 mmHg 67%

übermorgen, 28 September, Montag

Zeit Temperatur Niederschläge Wind Luftdruck Luftfeuchtigkeit
00:00 +11°C° 0 mm 1 m/S 767 mmHg 69%
01:00 +10°C° 0 mm 1 m/S 767 mmHg 69%
02:00 +10°C° 0 mm 1 m/S 767 mmHg 69%
03:00 +10°C° 0 mm 1 m/S 767 mmHg 70%
04:00 +10°C° 0 mm 1 m/S 767 mmHg 70%
05:00 +10°C° 0 mm 1 m/S 767 mmHg 71%
06:00 +9°C° 0 mm 1 m/S 767 mmHg 72%
07:00 +11°C° 0 mm 1 m/S 767 mmHg 67%
08:00 +13°C° 0 mm 1 m/S 767 mmHg 61%
09:00 +15°C° 0 mm 1 m/S 767 mmHg 56%
10:00 +16°C° 0 mm 2 m/S 767 mmHg 52%
11:00 +17°C° 0 mm 2 m/S 767 mmHg 49%
12:00 +18°C° 0 mm 2 m/S 767 mmHg 45%
13:00 +18°C° 0 mm 2 m/S 767 mmHg 45%
14:00 +18°C° 0 mm 2 m/S 767 mmHg 46%
15:00 +18°C° 0 mm 2 m/S 767 mmHg 46%
16:00 +16°C° 0 mm 2 m/S 767 mmHg 50%
17:00 +14°C° 0 mm 1 m/S 767 mmHg 54%
18:00 +13°C° 0 mm 1 m/S 767 mmHg 58%
19:00 +12°C° 0 mm 1 m/S 767 mmHg 57%
20:00 +12°C° 0 mm 1 m/S 767 mmHg 57%
21:00 +11°C° 0 mm 1 m/S 767 mmHg 57%
22:00 +11°C° 0 mm 1 m/S 767 mmHg 58%
23:00 +11°C° 0 mm 1 m/S 767 mmHg 60%

29 September, Dienstag

Zeit Temperatur Niederschläge Wind Luftdruck Luftfeuchtigkeit
00:00 +11°C° 0 mm 1 m/S 767 mmHg 62%
01:00 +11°C° 0 mm 1 m/S 767 mmHg 62%
02:00 +10°C° 0 mm 1 m/S 767 mmHg 63%
03:00 +10°C° 0 mm 1 m/S 767 mmHg 64%
04:00 +10°C° 0 mm 1 m/S 768 mmHg 65%
05:00 +10°C° 0 mm 1 m/S 768 mmHg 65%
06:00 +9°C° 0 mm 1 m/S 768 mmHg 66%
07:00 +11°C° 0 mm 1 m/S 768 mmHg 62%
08:00 +13°C° 0 mm 2 m/S 768 mmHg 58%
09:00 +14°C° 0 mm 2 m/S 767 mmHg 54%
10:00 +16°C° 0 mm 2 m/S 767 mmHg 50%
11:00 +17°C° 0 mm 2 m/S 767 mmHg 47%
12:00 +18°C° 0 mm 2 m/S 767 mmHg 44%
13:00 +18°C° 0 mm 2 m/S 767 mmHg 45%
14:00 +18°C° 0 mm 2 m/S 767 mmHg 46%
15:00 +18°C° 0 mm 2 m/S 767 mmHg 46%
16:00 +16°C° 0 mm 2 m/S 767 mmHg 51%
17:00 +15°C° 0 mm 2 m/S 766 mmHg 56%
18:00 +13°C° 0 mm 2 m/S 766 mmHg 61%
19:00 +13°C° 0 mm 2 m/S 766 mmHg 63%
20:00 +12°C° 0 mm 2 m/S 766 mmHg 64%
21:00 +12°C° 0 mm 2 m/S 766 mmHg 66%
22:00 +10°C° 0 mm 2 m/S 766 mmHg 68%
23:00 +10°C° 0 mm 2 m/S 766 mmHg 69%

30 September, Mittwoch

Zeit Temperatur Niederschläge Wind Luftdruck Luftfeuchtigkeit
00:00 +10°C° 0 mm 2 m/S 766 mmHg 71%
01:00 +10°C° 0 mm 1 m/S 766 mmHg 73%
02:00 +10°C° 0 mm 1 m/S 766 mmHg 74%
03:00 +10°C° 0 mm 1 m/S 766 mmHg 76%
04:00 +10°C° 0 mm 1 m/S 766 mmHg 77%
05:00 +10°C° 0 mm 1 m/S 766 mmHg 79%
06:00 +8°C° 0 mm 2 m/S 766 mmHg 81%
07:00 +10°C° 0 mm 2 m/S 766 mmHg 76%
08:00 +12°C° 0 mm 2 m/S 766 mmHg 71%
09:00 +14°C° 0 mm 2 m/S 766 mmHg 67%
10:00 +15°C° 0 mm 2 m/S 766 mmHg 63%
11:00 +16°C° 0 mm 3 m/S 766 mmHg 59%
12:00 +17°C° 0 mm 3 m/S 766 mmHg 56%
13:00 +17°C° 0 mm 3 m/S 766 mmHg 56%
14:00 +17°C° 0 mm 3 m/S 765 mmHg 57%
15:00 +17°C° 0 mm 3 m/S 765 mmHg 58%
16:00 +16°C° 0 mm 2 m/S 765 mmHg 62%
17:00 +15°C° 0 mm 2 m/S 765 mmHg 67%
18:00 +14°C° 0 mm 2 m/S 765 mmHg 71%
19:00 +13°C° 0 mm 2 m/S 765 mmHg 72%
20:00 +13°C° 0 mm 2 m/S 765 mmHg 74%
21:00 +12°C° 0 mm 2 m/S 765 mmHg 75%
22:00 +12°C° 0 mm 2 m/S 765 mmHg 76%
23:00 +12°C° 0 mm 2 m/S 765 mmHg 76%

1 Oktober, Donnerstag

Zeit Temperatur Niederschläge Wind Luftdruck Luftfeuchtigkeit
00:00 +12°C° 0 mm 1 m/S 766 mmHg 77%
01:00 +12°C° 0 mm 1 m/S 766 mmHg 78%
02:00 +11°C° 0 mm 1 m/S 766 mmHg 79%
03:00 +11°C° 0 mm 1 m/S 766 mmHg 80%
04:00 +11°C° 0 mm 1 m/S 766 mmHg 81%
05:00 +11°C° 0 mm 1 m/S 766 mmHg 83%
06:00 +11°C° 0 mm 1 m/S 766 mmHg 84%
07:00 +12°C° 0 mm 2 m/S 766 mmHg 79%
08:00 +14°C° 0 mm 2 m/S 766 mmHg 74%
09:00 +15°C° 0 mm 2 m/S 766 mmHg 69%
10:00 +16°C° 0 mm 2 m/S 766 mmHg 65%
11:00 +18°C° 0 mm 2 m/S 766 mmHg 61%
12:00 +19°C° 0 mm 2 m/S 766 mmHg 57%
13:00 +19°C° 0 mm 2 m/S 766 mmHg 57%
14:00 +19°C° 0 mm 2 m/S 766 mmHg 57%
15:00 +19°C° 0 mm 2 m/S 766 mmHg 57%
16:00 +17°C° 0 mm 2 m/S 766 mmHg 63%
17:00 +16°C° 0 mm 2 m/S 766 mmHg 68%
18:00 +14°C° 0 mm 2 m/S 766 mmHg 74%
19:00 +14°C° 0 mm 2 m/S 766 mmHg 76%
20:00 +13°C° 0 mm 2 m/S 766 mmHg 78%
21:00 +13°C° 0 mm 2 m/S 766 mmHg 80%
22:00 +13°C° 0 mm 2 m/S 766 mmHg 81%
23:00 +12°C° 0 mm 2 m/S 766 mmHg 83%
Mehr zeigen